Shirley, NY

8:13 AM EDT on October 23, 2017 (GMT -0400)
Brookhaven

Weather History for KHWV - August, 2014

Change the Weather History Date:

Saturday, August 16, 2014

  Actual Average (KISP) Record (KISP)
Temperature  
Mean Temperature 66 °F -  
Max Temperature 75 °F 79 °F 90 °F (2001)
Min Temperature 57 °F 64 °F 50 °F (1972)
Cooling Degree Days 1    
Growing Degree Days 16 (Base 50)    
Moisture  
Dew Point 56 °F    
Average Humidity 66    
Maximum Humidity 90    
Minimum Humidity 41    
Precipitation  
Precipitation 0.00 in - - ()
Sea Level Pressure  
Sea Level Pressure 29.98 in    
Wind  
Wind Speed 4 mph (SW)    
Max Wind Speed 14 mph    
Max Gust Speed 23 mph    
Visibility 10 miles    
Events      
Averages and records for this station are not official NWS values.
T = Trace of Precipitation, MM = Missing Value Source: NWS Daily Summary

Daily Weather History Graph

Daily Weather History Graph

Search for Another Location

Airport or City:

Trip Planner

Search our weather history database for the weather conditions in past years. The results will help you decide how hot, cold, wet, or windy it might be!

Date:

Astronomy

Aug. 16, 2014 Rise Set
Actual Time 6:02 AM EDT 7:48 PM EDT
Civil Twilight 5:33 AM EDT 8:17 PM EDT
Nautical Twilight 4:57 AM EDT 8:52 PM EDT
Astronomical Twilight 4:19 AM EDT 9:30 PM EDT
Moon 11:26 PM EDT (8/16) 12:48 PM EDT (8/16)
Length of Visible Light 14h 44m
Length of Day
13h 45m
Waning Gibbous, 59% of the Moon is Illuminated
Aug 16
Waning Gibbous
Aug 17
Last Quarter
Aug 25
New
Sep 2
First Quarter
Sep 8
Full

Hourly Weather History & Observations

Time (EDT) Temp. Dew Point Humidity Pressure Visibility Wind Dir Wind Speed Gust Speed Precip Events Conditions
12:56 AM 64.0 °F 54.0 °F 70% 29.99 in 10.0 mi Calm Calm - N/A   Overcast
1:56 AM 62.1 °F 55.0 °F 78% 29.98 in 10.0 mi Calm Calm - N/A   Overcast
2:56 AM 64.9 °F 55.0 °F 70% 29.98 in 10.0 mi Calm Calm - N/A   Overcast
3:56 AM 63.0 °F 55.0 °F 75% 29.99 in 10.0 mi WSW 3.5 mph - N/A   Overcast
4:56 AM 61.0 °F 53.1 °F 75% 29.99 in 10.0 mi WSW 3.5 mph - N/A   Clear
5:56 AM 57.0 °F 52.0 °F 83% 29.99 in 10.0 mi Calm Calm - N/A   Clear
6:56 AM 57.9 °F 55.0 °F 90% 30.01 in 10.0 mi Calm Calm - N/A   Clear
7:56 AM 66.0 °F 57.0 °F 73% 30.01 in 10.0 mi West 3.5 mph - N/A   Clear
8:56 AM 70.0 °F 55.9 °F 61% 30.01 in 10.0 mi Variable 4.6 mph - N/A   Clear
9:56 AM 73.0 °F 53.1 °F 49% 30.02 in 10.0 mi SW 8.1 mph - N/A   Clear
10:56 AM 73.9 °F 52.0 °F 46% 30.02 in 10.0 mi SW 12.7 mph - N/A   Clear
11:56 AM 75.0 °F 51.1 °F 43% 30.02 in 10.0 mi SW 12.7 mph - N/A   Clear
12:56 PM 75.0 °F 50.0 °F 41% 30.01 in 10.0 mi SSW 13.8 mph - N/A   Clear
1:56 PM 75.9 °F 51.1 °F 42% 30.00 in 10.0 mi SW 13.8 mph 23.0 mph N/A   Clear
2:56 PM 75.0 °F 51.1 °F 43% 29.99 in 10.0 mi SW 12.7 mph - N/A   Clear
3:56 PM 73.9 °F 55.0 °F 52% 29.99 in 10.0 mi SW 9.2 mph - N/A   Clear
4:56 PM 73.9 °F 57.9 °F 57% 29.97 in 10.0 mi SSW 6.9 mph - N/A   Clear
5:56 PM 73.0 °F 60.1 °F 64% 29.96 in 10.0 mi SSW 9.2 mph - N/A   Clear
6:56 PM 73.0 °F 60.1 °F 64% 29.94 in 10.0 mi South 8.1 mph - N/A   Clear
7:56 PM 71.1 °F 60.1 °F 68% 29.95 in 10.0 mi SSW 3.5 mph - N/A   Mostly Cloudy
8:56 PM 66.0 °F 60.1 °F 81% 29.95 in 10.0 mi Calm Calm - N/A   Clear
9:56 PM 64.0 °F 61.0 °F 90% 29.94 in 10.0 mi Calm Calm - N/A   Clear
10:56 PM 64.0 °F 61.0 °F 90% 29.93 in 9.0 mi Calm Calm - N/A   Clear
11:56 PM 64.9 °F 62.1 °F 90% 29.93 in 9.0 mi Calm Calm - N/A   Clear